| time (UTC) | temp F | wind direction | speed MPH | gust MPH | rain 1hr in | rain 24hr in | rain mn in | humidity % | barometer mb |
| 20260504042513 | 55 | 196 | 0.0 | 0.0 | 0.00 | 0.28 | 0.00 | 97 | 1011.4 |
| 20260504042028 | 56 | 196 | 0.0 | 0.0 | 0.00 | 0.28 | 0.00 | 97 | 1011.4 |
| 20260504041530 | 55 | 196 | 0.0 | 0.0 | 0.00 | 0.28 | 0.00 | 97 | 1011.4 |
| 20260504041030 | 55 | 196 | 0.0 | 0.0 | 0.00 | 0.28 | 0.00 | 97 | 1011.3 |
| 20260504040528 | 55 | 196 | 0.0 | 1.0 | 0.00 | 0.28 | 0.00 | 97 | 1011.4 |
| 20260504040017 | 55 | 196 | 0.0 | 1.0 | 0.00 | 0.28 | 0.00 | 97 | 1011.4 |
| 20260504035516 | 55 | 196 | 0.0 | 0.0 | 0.00 | 0.28 | 0.00 | 97 | 1011.4 |
| 20260504035015 | 55 | 196 | 0.0 | 0.0 | 0.00 | 0.28 | 0.00 | 97 | 1011.4 |
| 20260504034534 | 55 | 196 | 0.0 | 0.0 | 0.00 | 0.28 | 0.00 | 97 | 1011.4 |
| 20260504034031 | 55 | 196 | 0.0 | 1.0 | 0.00 | 0.28 | 0.00 | 97 | 1011.4 |
| 20260504033532 | 55 | 196 | 0.0 | 1.0 | 0.00 | 0.28 | 0.00 | 97 | 1011.3 |
| 20260504033030 | 55 | 196 | 0.0 | 0.0 | 0.00 | 0.28 | 0.00 | 97 | 1011.4 |
| 20260504032528 | 55 | 196 | 0.0 | 0.0 | 0.00 | 0.28 | 0.00 | 97 | 1011.4 |
| 20260504032026 | 55 | 196 | 0.0 | 0.0 | 0.00 | 0.28 | 0.00 | 96 | 1011.5 |
| 20260504031527 | 55 | 196 | 0.0 | 0.0 | 0.00 | 0.28 | 0.00 | 96 | 1011.5 |
| 20260504031046 | 55 | 196 | 0.0 | 1.0 | 0.00 | 0.28 | 0.00 | 96 | 1011.6 |
| 20260504030523 | 55 | 196 | 0.0 | 1.0 | 0.00 | 0.28 | 0.00 | 96 | 1011.7 |
| 20260504030015 | 55 | 196 | 0.0 | 3.0 | 0.00 | 0.28 | 0.00 | 96 | 1011.6 |
| 20260504025517 | 56 | 196 | 1.0 | 3.0 | 0.00 | 0.43 | 0.00 | 96 | 1011.6 |
| 20260504025020 | 56 | 196 | 0.0 | 3.0 | 0.00 | 0.43 | 0.00 | 96 | 1011.6 |
| 20260504024542 | 56 | 196 | 1.0 | 3.0 | 0.00 | 0.43 | 0.00 | 96 | 1011.6 |
| 20260504024038 | 56 | 196 | 1.0 | 6.0 | 0.00 | 0.43 | 0.00 | 96 | 1011.6 |
| 20260504023518 | 57 | 236 | 3.0 | 6.0 | 0.00 | 0.43 | 0.00 | 96 | 1011.4 |
| 20260504023020 | 56 | 228 | 5.0 | 6.0 | 0.00 | 0.43 | 0.00 | 96 | 1011.5 |
| 20260504022523 | 56 | 248 | 3.0 | 4.0 | 0.00 | 0.43 | 0.00 | 96 | 1011.5 |
| 20260504022021 | 56 | 221 | 2.0 | 4.0 | 0.00 | 0.43 | 0.00 | 96 | 1011.4 |
| 20260504021550 | 55 | 221 | 2.0 | 3.0 | 0.00 | 0.43 | 0.00 | 96 | 1011.6 |
| 20260504021029 | 55 | 116 | 1.0 | 3.0 | 0.00 | 0.43 | 0.00 | 96 | 1011.5 |
| 20260504020529 | 55 | 116 | 1.0 | 3.0 | 0.00 | 0.43 | 0.00 | 96 | 1011.4 |
| 20260504020023 | 55 | 116 | 1.0 | 2.0 | 0.00 | 0.43 | 0.00 | 96 | 1011.4 |
| 20260504015522 | 55 | 116 | 1.0 | 2.0 | 0.00 | 0.43 | 0.00 | 96 | 1011.5 |
| 20260504015022 | 55 | 116 | 0.0 | 1.0 | 0.00 | 0.43 | 0.00 | 96 | 1011.4 |
| 20260504014522 | 55 | 116 | 0.0 | 1.0 | 0.00 | 0.43 | 0.00 | 96 | 1011.5 |
| 20260504014019 | 55 | 116 | 0.0 | 0.0 | 0.00 | 0.43 | 0.00 | 96 | 1011.6 |
| 20260504013521 | 55 | 116 | 0.0 | 1.0 | 0.00 | 0.43 | 0.00 | 96 | 1011.5 |
| 20260504013025 | 55 | 116 | 0.0 | 2.0 | 0.00 | 0.43 | 0.00 | 96 | 1011.5 |
| 20260504012526 | 55 | 116 | 0.0 | 2.0 | 0.00 | 0.43 | 0.00 | 96 | 1011.4 |
| 20260504012024 | 55 | 116 | 0.0 | 1.0 | 0.00 | 0.43 | 0.00 | 96 | 1011.5 |
| 20260504011525 | 55 | 116 | 0.0 | 1.0 | 0.00 | 0.43 | 0.00 | 96 | 1011.6 |
| 20260504011024 | 55 | 116 | 0.0 | 1.0 | 0.00 | 0.43 | 0.00 | 96 | 1011.6 |
| 20260504010525 | 55 | 116 | 0.0 | 1.0 | 0.00 | 0.43 | 0.00 | 96 | 1011.6 |
| 20260504010021 | 55 | 116 | 0.0 | 0.0 | 0.00 | 0.43 | 0.00 | 96 | 1011.4 |
| 20260504005540 | 55 | 116 | 0.0 | 0.0 | 0.00 | 0.43 | 0.00 | 96 | 1011.4 |
| 20260504005018 | 55 | 116 | 0.0 | 0.0 | 0.00 | 0.43 | 0.00 | 96 | 1011.4 |
| 20260504004539 | 56 | 116 | 0.0 | 0.0 | 0.00 | 0.43 | 0.00 | 96 | 1011.4 |
| 20260504004014 | 56 | 116 | 0.0 | 0.0 | 0.00 | 0.43 | 0.00 | 96 | 1011.4 |
| 20260504003515 | 56 | 116 | 0.0 | 1.0 | 0.00 | 0.43 | 0.00 | 96 | 1011.4 |
| 20260504003013 | 56 | 116 | 0.0 | 1.0 | 0.00 | 0.43 | 0.00 | 96 | 1011.4 |
| 20260504002513 | 56 | 116 | 0.0 | 2.0 | 0.00 | 0.43 | 0.00 | 96 | 1011.5 |
| 20260504002015 | 56 | 116 | 0.0 | 1.0 | 0.00 | 0.43 | 0.00 | 96 | 1011.5 |
| 20260504001531 | 56 | 116 | 0.0 | 2.0 | 0.00 | 0.43 | 0.00 | 96 | 1011.4 |
| 20260504001031 | 56 | 116 | 1.0 | 2.0 | 0.00 | 0.43 | 0.00 | 96 | 1011.3 |
| 20260504000514 | 56 | 116 | 0.0 | 2.0 | 0.00 | 0.43 | 0.00 | 96 | 1011.4 |
| 20260504000046 | 56 | 116 | 0.0 | 0.0 | 0.00 | 0.43 | 0.00 | 96 | 1011.5 |
| 20260503235547 | 56 | 116 | 0.0 | 0.0 | 0.00 | 0.51 | 0.00 | 96 | 1011.5 |
| 20260503235026 | 56 | 116 | 0.0 | 0.0 | 0.00 | 0.51 | 0.00 | 96 | 1011.4 |
| 20260503234547 | 56 | 116 | 0.0 | 0.0 | 0.00 | 0.51 | 0.00 | 96 | 1011.5 |
| 20260503234022 | 56 | 116 | 0.0 | 0.0 | 0.00 | 0.51 | 0.00 | 95 | 1011.6 |
| 20260503233523 | 56 | 116 | 0.0 | 0.0 | 0.00 | 0.51 | 0.00 | 95 | 1011.5 |
| 20260503233023 | 56 | 116 | 0.0 | 1.0 | 0.00 | 0.51 | 0.00 | 95 | 1011.6 |
| 20260503232526 | 56 | 116 | 0.0 | 2.0 | 0.00 | 0.51 | 0.00 | 96 | 1011.6 |
| 20260503232024 | 56 | 116 | 0.0 | 2.0 | 0.00 | 0.51 | 0.00 | 96 | 1011.6 |
| 20260503231525 | 56 | 116 | 0.0 | 2.0 | 0.00 | 0.51 | 0.00 | 95 | 1011.6 |
| 20260503231024 | 57 | 116 | 1.0 | 3.0 | 0.00 | 0.51 | 0.00 | 95 | 1011.6 |
| 20260503230528 | 57 | 116 | 1.0 | 3.0 | 0.00 | 0.51 | 0.00 | 95 | 1011.6 |
| 20260503230024 | 57 | 116 | 1.0 | 3.0 | 0.00 | 0.51 | 0.00 | 95 | 1011.5 |
| 20260503225522 | 57 | 116 | 1.0 | 3.0 | 0.00 | 0.51 | 0.00 | 95 | 1011.5 |
| 20260503225024 | 57 | 116 | 0.0 | 2.0 | 0.00 | 0.51 | 0.00 | 95 | 1011.5 |
| 20260503224526 | 57 | 116 | 1.0 | 2.0 | 0.00 | 0.51 | 0.00 | 95 | 1011.6 |
| 20260503224028 | 57 | 116 | 0.0 | 2.0 | 0.00 | 0.51 | 0.00 | 96 | 1011.4 |
| 20260503223525 | 57 | 116 | 0.0 | 4.0 | 0.00 | 0.51 | 0.00 | 96 | 1011.4 |
| 20260503223027 | 57 | 116 | 0.0 | 4.0 | 0.00 | 0.51 | 0.00 | 96 | 1011.5 |
| 20260503222548 | 57 | 161 | 0.0 | 6.0 | 0.00 | 0.51 | 0.00 | 96 | 1011.6 |
| 20260503222031 | 57 | 141 | 3.0 | 6.0 | 0.00 | 0.51 | 0.00 | 96 | 1011.6 |
| 20260503221531 | 57 | 134 | 3.0 | 5.0 | 0.00 | 0.51 | 0.00 | 96 | 1011.5 |
| 20260503221014 | 57 | 126 | 2.0 | 4.0 | 0.00 | 0.51 | 0.00 | 96 | 1011.5 |
| 20260503220518 | 57 | 136 | 1.0 | 4.0 | 0.00 | 0.51 | 0.00 | 96 | 1011.4 |
| 20260503220014 | 57 | 136 | 1.0 | 4.0 | 0.00 | 0.51 | 0.00 | 96 | 1011.4 |
| 20260503215533 | 57 | 136 | 2.0 | 4.0 | 0.00 | 0.63 | 0.10 | 95 | 1011.4 |
| 20260503215015 | 57 | 136 | 1.0 | 3.0 | 0.00 | 0.63 | 0.10 | 95 | 1011.4 |
| 20260503214520 | 57 | 136 | 2.0 | 3.0 | 0.00 | 0.63 | 0.10 | 95 | 1011.3 |
| 20260503214041 | 57 | 136 | 1.0 | 3.0 | 0.00 | 0.63 | 0.10 | 95 | 1011.3 |
| 20260503213539 | 57 | 136 | 1.0 | 3.0 | 0.00 | 0.63 | 0.10 | 95 | 1011.2 |
| 20260503213042 | 57 | 136 | 1.0 | 3.0 | 0.00 | 0.63 | 0.10 | 95 | 1011.3 |
| 20260503212550 | 57 | 136 | 2.0 | 4.0 | 0.00 | 0.63 | 0.10 | 95 | 1011.3 |
| 20260503212012 | 57 | 136 | 2.0 | 3.0 | 0.00 | 0.63 | 0.10 | 95 | 1011.4 |
| 20260503211511 | 57 | 136 | 2.0 | 4.0 | 0.00 | 0.63 | 0.10 | 95 | 1011.4 |
| 20260503211014 | 58 | 134 | 1.0 | 5.0 | 0.00 | 0.63 | 0.10 | 95 | 1011.3 |
| 20260503210517 | 58 | 188 | 2.0 | 5.0 | 0.00 | 0.63 | 0.10 | 94 | 1011.3 |
| 20260503210014 | 58 | 136 | 1.0 | 4.0 | 0.00 | 0.63 | 0.10 | 94 | 1011.3 |
| 20260503205513 | 58 | 138 | 3.0 | 6.0 | 0.00 | 0.87 | 0.10 | 94 | 1011.3 |
| 20260503205017 | 58 | 175 | 2.0 | 6.0 | 0.00 | 0.87 | 0.10 | 94 | 1011.4 |
| 20260503204520 | 58 | 153 | 1.0 | 5.0 | 0.00 | 0.87 | 0.10 | 94 | 1011.4 |
| 20260503204025 | 58 | 165 | 2.0 | 5.0 | 0.00 | 0.87 | 0.10 | 94 | 1011.3 |
| 20260503203544 | 58 | 123 | 2.0 | 6.0 | 0.00 | 0.87 | 0.10 | 94 | 1011.3 |
| 20260503203027 | 58 | 144 | 2.0 | 7.0 | 0.00 | 0.87 | 0.10 | 94 | 1011.4 |
| 20260503202530 | 58 | 161 | 3.0 | 7.0 | 0.00 | 0.87 | 0.10 | 94 | 1011.4 |
| 20260503202033 | 58 | 140 | 2.0 | 5.0 | 0.00 | 0.87 | 0.10 | 94 | 1011.5 |
| 20260503201516 | 58 | 139 | 2.0 | 5.0 | 0.00 | 0.87 | 0.10 | 94 | 1011.3 |
| 20260503201014 | 58 | 113 | 2.0 | 7.0 | 0.00 | 0.87 | 0.10 | 94 | 1011.3 |
| 20260503200517 | 58 | 166 | 2.0 | 7.0 | 0.00 | 0.87 | 0.10 | 93 | 1011.2 |
| 20260503200014 | 59 | 138 | 1.0 | 5.0 | 0.00 | 0.87 | 0.10 | 93 | 1011.1 |
| 20260503195518 | 59 | 150 | 2.0 | 5.0 | 0.00 | 0.87 | 0.10 | 93 | 1011.0 |
| 20260503195019 | 59 | 121 | 3.0 | 5.0 | 0.00 | 0.87 | 0.10 | 93 | 1011.0 |
| 20260503194522 | 59 | 188 | 2.0 | 5.0 | 0.00 | 0.87 | 0.10 | 93 | 1010.9 |
| 20260503194025 | 59 | 161 | 2.0 | 6.0 | 0.00 | 0.87 | 0.10 | 92 | 1010.8 |
| 20260503193530 | 59 | 161 | 3.0 | 6.0 | 0.00 | 0.87 | 0.10 | 92 | 1010.8 |
| 20260503193013 | 59 | 159 | 3.0 | 5.0 | 0.00 | 0.87 | 0.10 | 92 | 1010.8 |
| 20260503192514 | 60 | 153 | 2.0 | 5.0 | 0.00 | 0.87 | 0.10 | 92 | 1010.8 |
| 20260503192016 | 59 | 121 | 1.0 | 5.0 | 0.00 | 0.87 | 0.10 | 92 | 1010.7 |
| 20260503191517 | 59 | 113 | 2.0 | 5.0 | 0.00 | 0.87 | 0.10 | 92 | 1010.6 |
| 20260503191020 | 59 | 167 | 2.0 | 5.0 | 0.00 | 0.87 | 0.10 | 92 | 1010.5 |
| 20260503190520 | 60 | 134 | 1.0 | 5.0 | 0.00 | 0.87 | 0.10 | 92 | 1010.4 |
| 20260503190016 | 60 | 119 | 2.0 | 5.0 | 0.00 | 0.87 | 0.10 | 92 | 1010.3 |
| 20260503185540 | 60 | 124 | 2.0 | 7.0 | 0.00 | 0.87 | 0.10 | 91 | 1010.3 |
| 20260503185023 | 60 | 122 | 3.0 | 8.0 | 0.00 | 0.87 | 0.10 | 93 | 1010.3 |
| 20260503184524 | 61 | 128 | 3.0 | 8.0 | 0.00 | 0.87 | 0.10 | 91 | 1010.3 |
| 20260503184052 | 61 | 100 | 2.0 | 6.0 | 0.00 | 0.87 | 0.10 | 90 | 1010.3 |
| 20260503183534 | 60 | 155 | 5.0 | 7.0 | 0.00 | 0.87 | 0.10 | 90 | 1010.3 |
| 20260503183017 | 61 | 133 | 3.0 | 6.0 | 0.00 | 0.87 | 0.10 | 90 | 1010.3 |
| 20260503182517 | 61 | 131 | 3.0 | 8.0 | 0.00 | 0.87 | 0.10 | 90 | 1010.2 |
| 20260503182019 | 61 | 177 | 4.0 | 9.0 | 0.00 | 0.87 | 0.10 | 90 | 1010.2 |
| 20260503181545 | 61 | 208 | 4.0 | 7.0 | 0.00 | 0.87 | 0.10 | 91 | 1010.1 |
| 20260503181028 | 61 | 128 | 4.0 | 7.0 | 0.00 | 0.87 | 0.10 | 91 | 1010.0 |
| 20260503180553 | 61 | 189 | 5.0 | 7.0 | 0.00 | 0.87 | 0.10 | 91 | 1010.0 |
| 20260503180031 | 61 | 186 | 3.0 | 7.0 | 0.00 | 0.87 | 0.10 | 91 | 1009.9 |
| 20260503175514 | 61 | 180 | 3.0 | 6.0 | 0.00 | 0.87 | 0.10 | 91 | 1009.9 |
| 20260503175018 | 61 | 142 | 3.0 | 6.0 | 0.00 | 0.87 | 0.10 | 91 | 1009.8 |
| 20260503174518 | 61 | 205 | 2.0 | 7.0 | 0.00 | 0.87 | 0.10 | 90 | 1009.7 |
| 20260503174022 | 61 | 174 | 3.0 | 7.0 | 0.00 | 0.87 | 0.10 | 90 | 1009.7 |
| 20260503173518 | 61 | 144 | 3.0 | 9.0 | 0.00 | 0.87 | 0.10 | 90 | 1009.7 |
| 20260503173022 | 62 | 180 | 4.0 | 9.0 | 0.00 | 0.87 | 0.10 | 90 | 1009.8 |
| 20260503172526 | 62 | 193 | 5.0 | 9.0 | 0.00 | 0.87 | 0.10 | 90 | 1009.9 |
| 20260503172026 | 62 | 182 | 2.0 | 5.0 | 0.00 | 0.87 | 0.10 | 90 | 1009.9 |
| 20260503171511 | 62 | 213 | 3.0 | 6.0 | 0.00 | 0.87 | 0.10 | 90 | 1009.9 |
| 20260503171014 | 62 | 212 | 3.0 | 6.0 | 0.00 | 0.87 | 0.10 | 89 | 1009.8 |
| 20260503170518 | 62 | 140 | 2.0 | 5.0 | 0.00 | 0.87 | 0.10 | 90 | 1009.7 |
| 20260503150623 | 64 | 198 | 5.0 | 9.0 | 0.00 | 0.87 | 0.10 | 79 | 1009.8 |
| 20260503150125 | 64 | 207 | 5.0 | 10.0 | 0.00 | 0.87 | 0.10 | 79 | 1009.8 |
| 20260503140112 | 64 | 196 | 6.0 | 8.0 | 0.00 | 0.87 | 0.10 | 82 | 1010.2 |
| 20260503131112 | 61 | 233 | 4.0 | 8.0 | 0.00 | 0.87 | 0.10 | 87 | 1010.4 |
| 20260503130619 | 61 | 194 | 3.0 | 10.0 | 0.00 | 0.87 | 0.10 | 86 | 1010.4 |
| 20260503130134 | 61 | 171 | 4.0 | 10.0 | 0.00 | 0.87 | 0.10 | 87 | 1010.5 |
| 20260503120119 | 61 | 183 | 2.0 | 6.0 | 0.04 | 0.87 | 0.10 | 92 | 1010.6 |
| 20260503110617 | 59 | 178 | 5.0 | 10.0 | 0.04 | 0.83 | 0.09 | 94 | 1010.8 |
| 20260503110144 | 59 | 171 | 7.0 | 10.0 | 0.04 | 0.83 | 0.09 | 94 | 1010.8 |
| 20260503100143 | 59 | 197 | 2.0 | 5.0 | 0.12 | 0.79 | 0.09 | 93 | 1010.8 |
| 20260503090114 | 59 | 196 | 4.0 | 9.0 | 0.04 | 0.67 | 0.06 | 92 | 1010.8 |
| 20260503081611 | 60 | 238 | 6.0 | 11.0 | 0.00 | 0.63 | 0.06 | 92 | 1010.4 |
| 20260503081137 | 60 | 169 | 6.0 | 11.0 | 0.00 | 0.63 | 0.06 | 92 | 1010.5 |
| 20260503080623 | 60 | 301 | 5.0 | 15.0 | 0.00 | 0.63 | 0.06 | 92 | 1010.4 |
| 20260503080120 | 60 | 196 | 7.0 | 16.0 | 0.00 | 0.63 | 0.06 | 92 | 1010.4 |
| 20260503072623 | 60 | 142 | 3.0 | 11.0 | 0.00 | 0.63 | 0.06 | 94 | 1010.3 |
| 20260503072109 | 60 | 133 | 5.0 | 11.0 | 0.00 | 0.63 | 0.06 | 94 | 1010.3 |
| 20260503071618 | 60 | 164 | 4.0 | 10.0 | 0.00 | 0.63 | 0.06 | 94 | 1010.2 |
| 20260503071123 | 60 | 131 | 5.0 | 10.0 | 0.04 | 0.63 | 0.06 | 94 | 1010.1 |
| 20260503070611 | 60 | 153 | 4.0 | 10.0 | 0.04 | 0.63 | 0.06 | 94 | 1010.0 |
| 20260503070110 | 60 | 184 | 3.0 | 10.0 | 0.04 | 0.63 | 0.06 | 94 | 1010.1 |
| 20260503060109 | 59 | 153 | 1.0 | 3.0 | 0.00 | 0.79 | 0.05 | 95 | 1010.0 |
| 20260503054611 | 59 | 114 | 1.0 | 6.0 | 0.00 | 0.91 | 0.05 | 95 | 1009.9 |
| 20260503054109 | 59 | 109 | 1.0 | 3.0 | 0.00 | 0.91 | 0.05 | 95 | 1010.0 |
| 20260503053618 | 59 | 129 | 1.0 | 6.0 | 0.00 | 0.91 | 0.05 | 95 | 1010.0 |
| 20260503053125 | 59 | 101 | 1.0 | 6.0 | 0.00 | 0.91 | 0.05 | 95 | 1010.0 |
| 20260503052613 | 59 | 113 | 0.0 | 8.0 | 0.00 | 0.91 | 0.05 | 95 | 1010.1 |
| 20260503052115 | 59 | 96 | 3.0 | 8.0 | 0.00 | 0.91 | 0.05 | 95 | 1010.0 |
| 20260503051625 | 59 | 125 | 2.0 | 6.0 | 0.00 | 0.91 | 0.05 | 95 | 1010.0 |
| 20260503051111 | 59 | 122 | 2.0 | 5.0 | 0.00 | 0.91 | 0.05 | 95 | 1010.0 |
| 20260503050620 | 59 | 131 | 2.0 | 9.0 | 0.00 | 0.91 | 0.05 | 95 | 1010.0 |
| 20260503050123 | 59 | 121 | 3.0 | 9.0 | 0.00 | 0.91 | 0.05 | 95 | 1010.1 |
| 20260503045606 | 59 | 142 | 2.0 | 5.0 | 0.00 | 0.91 | 0.05 | 95 | 1010.1 |
| 20260503045109 | 58 | 133 | 1.0 | 4.0 | 0.00 | 0.91 | 0.05 | 95 | 1010.1 |
| 20260503044616 | 58 | 102 | 1.0 | 5.0 | 0.00 | 0.91 | 0.05 | 95 | 1010.1 |
| 20260503044125 | 58 | 123 | 1.0 | 5.0 | 0.00 | 0.91 | 0.05 | 95 | 1010.3 |
| 20260503043615 | 58 | 140 | 1.0 | 4.0 | 0.00 | 0.91 | 0.05 | 95 | 1010.4 |
| 20260503043109 | 58 | 109 | 1.0 | 7.0 | 0.00 | 0.91 | 0.05 | 95 | 1010.4 |